Hourly Weather Celinnyy

Today, 16 June, Wednesday

Time Temperature Precipitation Wind Pressure Humidity
00:00 +8°C° 0 mm 3 mps 698 mmHg 81%
01:00 +8°C° 0 mm 3 mps 698 mmHg 80%
02:00 +7°C° 0 mm 3 mps 698 mmHg 81%
03:00 +5°C° 0 mm 3 mps 698 mmHg 82%
04:00 +5°C° 0 mm 3 mps 698 mmHg 83%
05:00 +7°C° 0 mm 3 mps 698 mmHg 76%
06:00 +7°C° 0 mm 4 mps 698 mmHg 69%
07:00 +8°C° 0 mm 4 mps 698 mmHg 62%
08:00 +8°C° 0 mm 4 mps 698 mmHg 64%
09:00 +8°C° 0 mm 4 mps 698 mmHg 67%
10:00 +8°C° 0 mm 5 mps 698 mmHg 69%
11:00 +9°C° 0.1 mm 5 mps 697 mmHg 66%
12:00 +10°C° 0.1 mm 5 mps 697 mmHg 62%
13:00 +12°C° 0.1 mm 5 mps 697 mmHg 58%
14:00 +10°C° 0 mm 5 mps 697 mmHg 60%
15:00 +11°C° 0 mm 4 mps 696 mmHg 61%
16:00 +11°C° 0 mm 4 mps 696 mmHg 62%
17:00 +10°C° 0 mm 4 mps 696 mmHg 65%
18:00 +9°C° 0 mm 3 mps 696 mmHg 67%
19:00 +9°C° 0 mm 2 mps 696 mmHg 70%
20:00 +8°C° 0 mm 2 mps 696 mmHg 75%
21:00 +7°C° 0 mm 2 mps 697 mmHg 80%
22:00 +6°C° 0 mm 2 mps 697 mmHg 85%
23:00 +7°C° 0.2 mm 1 mps 697 mmHg 87%

Tomorrow, 17 June, Thursday

Time Temperature Precipitation Wind Pressure Humidity
00:00 +6°C° 0.2 mm 1 mps 697 mmHg 90%
01:00 +6°C° 0.2 mm 1 mps 697 mmHg 92%
02:00 +6°C° 0.3 mm 1 mps 697 mmHg 92%
03:00 +5°C° 0.3 mm 2 mps 697 mmHg 92%
04:00 +5°C° 0.3 mm 2 mps 697 mmHg 93%
05:00 +6°C° 0 mm 2 mps 698 mmHg 88%
06:00 +8°C° 0 mm 2 mps 698 mmHg 84%
07:00 +9°C° 0 mm 3 mps 698 mmHg 79%
08:00 +11°C° 0 mm 3 mps 697 mmHg 69%
09:00 +14°C° 0 mm 4 mps 697 mmHg 59%
10:00 +16°C° 0 mm 5 mps 697 mmHg 48%
11:00 +17°C° 0 mm 6 mps 696 mmHg 45%
12:00 +19°C° 0 mm 6 mps 696 mmHg 42%
13:00 +21°C° 0 mm 7 mps 696 mmHg 39%
14:00 +20°C° 0 mm 7 mps 696 mmHg 40%
15:00 +20°C° 0 mm 8 mps 696 mmHg 41%
16:00 +20°C° 0 mm 8 mps 696 mmHg 43%
17:00 +18°C° 0 mm 7 mps 696 mmHg 46%
18:00 +17°C° 0 mm 7 mps 696 mmHg 50%
19:00 +16°C° 0 mm 6 mps 695 mmHg 53%
20:00 +14°C° 0 mm 6 mps 695 mmHg 57%
21:00 +13°C° 0 mm 5 mps 695 mmHg 60%
22:00 +12°C° 0 mm 4 mps 694 mmHg 64%
23:00 +11°C° 0 mm 4 mps 694 mmHg 66%

Day after tomorrow, 18 June, Friday

Time Temperature Precipitation Wind Pressure Humidity
00:00 +11°C° 0 mm 4 mps 694 mmHg 68%
01:00 +10°C° 0 mm 4 mps 694 mmHg 70%
02:00 +10°C° 0 mm 4 mps 693 mmHg 71%
03:00 +8°C° 0 mm 4 mps 693 mmHg 72%
04:00 +8°C° 0 mm 4 mps 693 mmHg 73%
05:00 +10°C° 0 mm 5 mps 693 mmHg 67%
06:00 +13°C° 0 mm 5 mps 693 mmHg 60%
07:00 +15°C° 0 mm 6 mps 693 mmHg 54%
08:00 +16°C° 0 mm 6 mps 693 mmHg 48%
09:00 +18°C° 0 mm 7 mps 693 mmHg 43%
10:00 +21°C° 0 mm 7 mps 693 mmHg 37%
11:00 +21°C° 0 mm 7 mps 693 mmHg 36%
12:00 +21°C° 0 mm 7 mps 693 mmHg 34%
13:00 +22°C° 0 mm 8 mps 693 mmHg 33%
14:00 +22°C° 0 mm 7 mps 693 mmHg 34%
15:00 +21°C° 0 mm 7 mps 693 mmHg 34%
16:00 +21°C° 0 mm 6 mps 693 mmHg 35%
17:00 +20°C° 0 mm 5 mps 693 mmHg 39%
18:00 +19°C° 0 mm 4 mps 693 mmHg 43%
19:00 +18°C° 0 mm 3 mps 693 mmHg 47%
20:00 +16°C° 0 mm 3 mps 693 mmHg 55%
21:00 +15°C° 0 mm 2 mps 693 mmHg 63%
22:00 +13°C° 0 mm 1 mps 693 mmHg 70%
23:00 +12°C° 0 mm 1 mps 693 mmHg 73%

19 June, Saturday

Time Temperature Precipitation Wind Pressure Humidity
00:00 +11°C° 0 mm 1 mps 693 mmHg 76%
01:00 +10°C° 0 mm 0 mps 693 mmHg 79%
02:00 +10°C° 0 mm 0 mps 693 mmHg 80%
03:00 +9°C° 0 mm 0 mps 694 mmHg 81%
04:00 +9°C° 0 mm 0 mps 694 mmHg 81%
05:00 +11°C° 0 mm 0 mps 694 mmHg 73%
06:00 +13°C° 0 mm 0 mps 694 mmHg 65%
07:00 +16°C° 0 mm 1 mps 694 mmHg 56%
08:00 +19°C° 0 mm 1 mps 694 mmHg 51%
09:00 +20°C° 0 mm 1 mps 694 mmHg 46%
10:00 +22°C° 0 mm 1 mps 694 mmHg 41%
11:00 +22°C° 0 mm 1 mps 694 mmHg 41%
12:00 +22°C° 0 mm 1 mps 694 mmHg 41%
13:00 +21°C° 0 mm 2 mps 694 mmHg 41%
14:00 +23°C° 0 mm 2 mps 693 mmHg 38%
15:00 +24°C° 0 mm 3 mps 693 mmHg 35%
16:00 +25°C° 0 mm 3 mps 693 mmHg 32%
17:00 +22°C° 0 mm 3 mps 693 mmHg 38%
18:00 +21°C° 0 mm 3 mps 693 mmHg 44%
19:00 +19°C° 0 mm 2 mps 694 mmHg 50%
20:00 +17°C° 0 mm 2 mps 694 mmHg 58%
21:00 +15°C° 0 mm 2 mps 694 mmHg 66%
22:00 +13°C° 0 mm 2 mps 695 mmHg 74%
23:00 +13°C° 0 mm 2 mps 695 mmHg 78%

20 June, Sunday

Time Temperature Precipitation Wind Pressure Humidity
00:00 +12°C° 0 mm 2 mps 695 mmHg 82%
01:00 +12°C° 0 mm 1 mps 695 mmHg 86%
02:00 +12°C° 0 mm 1 mps 695 mmHg 84%
03:00 +13°C° 0 mm 1 mps 695 mmHg 83%
04:00 +13°C° 0 mm 1 mps 696 mmHg 81%
05:00 +14°C° 0 mm 1 mps 696 mmHg 77%
06:00 +15°C° 0 mm 1 mps 696 mmHg 73%
07:00 +16°C° 0 mm 1 mps 696 mmHg 69%
08:00 +16°C° 0 mm 1 mps 697 mmHg 68%
09:00 +16°C° 0 mm 2 mps 697 mmHg 67%
10:00 +17°C° 0 mm 2 mps 697 mmHg 66%
11:00 +19°C° 0 mm 2 mps 697 mmHg 58%
12:00 +20°C° 0 mm 2 mps 697 mmHg 50%
13:00 +23°C° 0 mm 2 mps 697 mmHg 42%
14:00 +23°C° 0 mm 2 mps 697 mmHg 45%
15:00 +21°C° 0 mm 2 mps 697 mmHg 48%
16:00 +20°C° 0 mm 3 mps 697 mmHg 51%
17:00 +20°C° 0 mm 2 mps 697 mmHg 54%
18:00 +19°C° 0 mm 2 mps 697 mmHg 58%
19:00 +18°C° 0 mm 2 mps 697 mmHg 61%
20:00 +17°C° 0 mm 2 mps 697 mmHg 67%
21:00 +15°C° 0 mm 2 mps 698 mmHg 73%
22:00 +14°C° 0 mm 2 mps 698 mmHg 78%
23:00 +13°C° 0 mm 2 mps 698 mmHg 82%

21 June, Monday

Time Temperature Precipitation Wind Pressure Humidity
00:00 +12°C° 0 mm 2 mps 698 mmHg 86%
01:00 +12°C° 0 mm 2 mps 698 mmHg 89%
02:00 +10°C° 0 mm 2 mps 698 mmHg 90%
03:00 +11°C° 0 mm 1 mps 698 mmHg 90%
04:00 +11°C° 0 mm 1 mps 699 mmHg 90%
05:00 +13°C° 0 mm 1 mps 699 mmHg 81%
06:00 +16°C° 0 mm 1 mps 699 mmHg 72%
07:00 +18°C° 0 mm 2 mps 699 mmHg 63%
08:00 +20°C° 0 mm 2 mps 699 mmHg 57%
09:00 +21°C° 0 mm 2 mps 699 mmHg 50%
10:00 +24°C° 0 mm 3 mps 699 mmHg 44%
11:00 +25°C° 0 mm 2 mps 699 mmHg 41%
12:00 +25°C° 0 mm 2 mps 699 mmHg 38%
13:00 +26°C° 0 mm 2 mps 699 mmHg 35%
14:00 +26°C° 0 mm 2 mps 699 mmHg 34%
15:00 +27°C° 0 mm 2 mps 699 mmHg 33%
16:00 +27°C° 0 mm 2 mps 698 mmHg 32%
17:00 +25°C° 0 mm 2 mps 698 mmHg 38%
18:00 +24°C° 0 mm 3 mps 698 mmHg 43%
19:00 +21°C° 0 mm 3 mps 698 mmHg 49%
20:00 +20°C° 0.1 mm 2 mps 698 mmHg 56%
21:00 +18°C° 0.1 mm 2 mps 698 mmHg 63%
22:00 +16°C° 0.1 mm 2 mps 699 mmHg 70%
23:00 +16°C° 0.4 mm 2 mps 699 mmHg 74%
Show more

We Need Your Consent

Meteoprog and our Service Providers may store and access personal data such as cookies, device identifiers or other similar technologies on your device and process such data to personalise content and ads, as well as provide social media features and to analyse the traffic.

  • Store and/or access information on your device

    Cookies, device identifiers or other information can be stored or accessed on your device for the purposes indicated above.

  • Personalised ads and content, ad and content measurement, audience insights, and products development

    Ads and content can be personalised based on a profile. More data can be added to better personalise ads and content. Ad and content performance can be measured. Insights about the audience who saw the ads and content can be derived. Such data can be used to develop or improve user’s experience, systems and software.

By clicking ‘I Agree’ you will allow the use of indicated cookies, device identifiers, web beacons or other similar technologies. Your settings can be changed in the browser on your device.

For certain purposes, legitimate interests may be relied on, rather than consent. You can read more about this in our Privacy and Cookie Policy.